This is the latest recevied weather packets stored in our database for station/object G4WLC-1. If no packets are shown the sender has not sent any weather packets the latest 10 day(s).
| Time | Temp. | Humidity | Pressure | Rain* | Wind** | Luminosity | Snow |
|---|---|---|---|---|---|---|---|
| 1777916586 | 16.11° C | 76% | 1014.4 hPa | 0 mm | - | - | - |
| 1777916286 | 15.56° C | 76% | 1014.4 hPa | 0 mm | - | - | - |
| 1777915986 | 16.11° C | 76% | 1014.3 hPa | 0 mm | - | - | - |
| 1777915686 | 16.11° C | 77% | 1014.4 hPa | 0 mm | - | - | - |
| 1777915386 | 15.56° C | 77% | 1014.4 hPa | 0 mm | - | - | - |
| 1777915086 | 15.56° C | 78% | 1014.6 hPa | 0 mm | - | - | - |
| 1777914786 | 15.56° C | 76% | 1014.5 hPa | 0 mm | - | - | - |
| 1777914486 | 16.11° C | 76% | 1014.5 hPa | 0 mm | - | - | - |
| 1777914186 | 16.11° C | 74% | 1014.6 hPa | 0 mm | - | - | - |
| 1777913886 | 16.11° C | 74% | 1014.5 hPa | 0 mm | - | - | - |
| 1777913586 | 16.11° C | 75% | 1014.3 hPa | 0 mm | - | - | - |
| 1777913286 | 16.11° C | 74% | 1014.4 hPa | 0 mm | - | - | - |
| 1777912986 | 16.67° C | 75% | 1014.4 hPa | 0 mm | - | - | - |
| 1777912686 | 16.11° C | 74% | 1014.6 hPa | 0 mm | - | - | - |
| 1777912386 | 15.56° C | 75% | 1014.6 hPa | 0 mm | - | - | - |
| 1777912086 | 15.56° C | 76% | 1014.6 hPa | 0 mm | - | - | - |
| 1777911786 | 15.56° C | 74% | 1014.7 hPa | 0 mm | - | - | - |
| 1777911486 | 16.11° C | 73% | 1014.8 hPa | 0 mm | - | - | - |
| 1777911186 | 16.11° C | 72% | 1014.8 hPa | 0 mm | - | - | - |
| 1777910886 | 16.67° C | 72% | 1014.8 hPa | 0 mm | - | - | - |
| 1777910586 | 16.67° C | 69% | 1014.7 hPa | 0 mm | - | - | - |
| 1777910286 | 17.22° C | 71% | 1014.9 hPa | 0 mm | - | - | - |
| 1777909986 | 17.22° C | 72% | 1014.8 hPa | 0 mm | - | - | - |
| 1777909686 | 17.78° C | 71% | 1014.8 hPa | 0 mm | - | - | - |
| 1777909386 | 17.22° C | 73% | 1014.8 hPa | 0 mm | - | - | - |
* Rain latest hour (hover to see other rain measurements)
** Current wind speed in m/s (hover to see current wind gust speed)